Location: Big Prairie
(40.6673°N, 82.0952°W)
Time: 20:26:29
(UTC+00:00)

SJ 16-02 - Pass Details

Date: 03 December 2021
Orbit: 605 x 616 km, 75.0° (Epoch: 17 January)

Event Time Altitude Azimuth Distance (km) Brightness Sun altitude
Rises 22:34:25 0° 331° (NNW) 2,870 4.9 -6.5°
Reaches altitude 10° 22:36:52 10° 320° (NW) 1,963 4.2 -6.9°
Maximum altitude 22:40:38 29° 260° (W) 1,124 3.7 -7.5°
Drops below altitude 10° 22:44:24 10° 200° (SSW) 1,955 4.6 -8.2°
Sets 22:46:51 0° 189° (S) 2,856 5.2 -8.6°
